Home   Weather   Jakobstad   Past weeks

Flag for Finland Past Weather in Jakobstad, Finland — Yesterday and Last 2 Weeks

Now
19 °F

Snow flurries. Mostly cloudy.


Feels Like: 7 °F
Forecast: 28 / 41 °F
Wind: 13 mph from South

Location: Kruunupyy

Current Time: Dec 4, 2016 at 12:21:34 pm

Latest Report: Dec 4, 2016 at 11:50 am


Visibility: N/A

Pressure: 29.89 "Hg

Humidity: 86%

Dew Point: 16 °F

Location of JakobstadLocation

Past Weather in Jakobstad — Graph

°F

Jakobstad Temperature Yesterday

Maximum temperature yesterday: 28 °F (at 12:20 am)
Minimum temperature yesterday: 12 °F (at 11:50 pm)
Average temperature yesterday: 25 °F

High & Low Weather Summary for the Past Weeks

 TemperatureHumidityPressure
High45 °F (Nov 21, 4:50 pm)100% (Nov 19, 2:20 pm)30.09 "Hg (Nov 19, 2:20 pm)
Low3 °F (Dec 4, 2:50 am)65% (Nov 30, 3:20 pm)29.03 "Hg (Nov 26, 12:50 pm)
Average31 °F91%29.68 "Hg
* Reported Nov 19 11:20 am — Dec 4 11:20 am, Jakobstad, Weather by CustomWeather, © 2016

Note: Actual official high and low records may vary slightly from our data, if they occured in-between our weather recording intervals... More about our weather records

Advertising

Jakobstad Weather History for the Previous 24 Hours

Scroll right to see more
 ConditionsComfort  
Time TempWeatherWind HumidityBarometerVisibility
11:20 am
Sun, Dec 4
18 °FBroken clouds.10 mph93%29.92 "HgN/A
10:50 am16 °FSunny.9 mph93%29.95 "Hg10 mi
10:20 am14 °FSunny.6 mph92%29.95 "Hg10 mi
9:50 am14 °FSunny.6 mph85%29.98 "Hg10 mi
9:20 am12 °FClear.5 mph85%30.01 "Hg10 mi
8:50 am10 °FClear.5 mph92%30.01 "Hg10 mi
8:20 am9 °FPassing clouds.5 mph92%30.04 "HgN/A
7:50 am9 °FClear.5 mph92%30.04 "Hg10 mi
7:20 am9 °FPassing clouds.3 mph85%30.04 "HgN/A
6:50 am9 °FPassing clouds.5 mph92%30.07 "HgN/A
6:20 am7 °FPassing clouds.3 mph92%30.07 "HgN/A
5:50 am7 °FPassing clouds.2 mph85%30.07 "HgN/A
5:20 am7 °FIce fog.2 mph92%30.07 "HgN/A
4:50 am9 °FPassing clouds.2 mph85%30.09 "HgN/A
4:20 am7 °FLight freezing rain. Ice fog.5 mph92%30.09 "Hg1 mi
3:50 am7 °FIce fog.2 mph92%30.09 "Hg0 mi
3:20 am7 °FIce fog.5 mph92%30.09 "Hg1 mi
2:50 am3 °FIce fog.No wind92%30.09 "HgN/A
2:20 am5 °FClear.No wind92%30.09 "Hg10 mi
1:50 am5 °FClear.No wind92%30.09 "Hg10 mi
1:20 am7 °FClear.1 mph92%30.09 "Hg10 mi
12:50 am9 °FClear.No wind92%30.09 "Hg10 mi
12:20 am7 °FIce fog.1 mph85%30.09 "Hg6 mi
11:50 pm
Sat, Dec 3
12 °FIce fog.No wind92%30.09 "Hg0 mi
11:20 pm14 °FIce fog.No wind92%30.09 "Hg1 mi
10:50 pm14 °FClear.2 mph100%30.09 "Hg10 mi
10:20 pm19 °FClear.3 mph93%30.09 "Hg10 mi
9:50 pm23 °FPassing clouds.3 mph80%30.09 "HgN/A
9:20 pm25 °FPassing clouds.6 mph80%30.07 "HgN/A
8:50 pm27 °FPassing clouds.8 mph74%30.07 "HgN/A
8:20 pm27 °FPassing clouds.9 mph74%30.07 "HgN/A
7:50 pm27 °FPassing clouds.8 mph74%30.07 "HgN/A
7:20 pm27 °FMostly cloudy.9 mph74%30.07 "HgN/A
6:50 pm27 °FLight mixture of precip. Passing clouds.8 mph74%30.07 "HgN/A
6:20 pm27 °FSnow flurries. Passing clouds.6 mph69%30.07 "HgN/A
5:50 pm27 °FSnow flurries. Passing clouds.8 mph69%30.04 "HgN/A
5:20 pm27 °FLight snow. Passing clouds.5 mph74%30.04 "HgN/A
4:50 pm27 °FLight snow. Overcast.6 mph74%30.04 "HgN/A
4:20 pm27 °FPassing clouds.8 mph69%30.04 "HgN/A
3:50 pm27 °FPassing clouds.8 mph69%30.01 "HgN/A
3:20 pm27 °FPassing clouds.8 mph74%30.01 "HgN/A
2:50 pm27 °FPassing clouds.9 mph69%30.01 "HgN/A
2:20 pm27 °FPartly sunny.8 mph69%30.01 "HgN/A
1:50 pm27 °FPartly sunny.8 mph69%30.01 "HgN/A
1:20 pm27 °FScattered clouds.7 mph69%30.01 "HgN/A
12:50 pm27 °FScattered clouds.7 mph69%29.98 "HgN/A
12:20 pm27 °FPartly sunny.8 mph69%29.98 "HgN/A
Weather by CustomWeather, © 2016

See weather overviewHow to use our weather pages